Location: Brodeslavy
(49.9527°N, 13.5567°E)
Time: 15:46:12
(UTC+00:00)

Cosmos 2082 Rocket - Pass Details

Date: 17 June 2025
Orbit: 830 x 854 km, 71.0° (Epoch: 19 July)

Event Time Altitude Azimuth Distance (km) Brightness Sun altitude
Rises 23:16:35 0° 333° (NNW) 3,419 6.5 -16.6°
Reaches altitude 10° 23:19:18 10° 343° (NNW) 2,484 5.8 -16.6°
Maximum altitude 23:24:24 33° 47° (NE) 1,415 3.8 -16.5°
Drops below altitude 10° 23:29:30 10° 110° (ESE) 2,482 4.5 -16.5°
Sets 23:32:12 0° 120° (ESE) 3,416 5.1 -16.4°
